Date String (YYYY-MM-DD hh:mm:ss) UTC,Instrument flags,absolute air pressure of the measurement (hPa),sample flow rate (lpm),inlet stack bypass flow (lpm),air temperature of the measurement (°C),ambient temperature measured by the external sensor (°C),aerosol sample conditioner tube jacket temperature (°C),OPC LED temperature (°C),internal box temperature (°C),relative humidity of the measurement (%),span deviation,mass concentration of particles derived from Lorenz-Mie calculation of OPC scattering (μg/m³),mass concentration of particles derived from Lorenz-Mie calculation of OPC scattering (μg/m³),mass concentration of particles derived from Lorenz-Mie calculation of OPC scattering (μg/m³)
DateTimeUTC,F1_M11,P_M11,Q1_M11,Q2_M11,T1_M11,T2_M11,T3_M11,T4_M11,T5_M11,U1_M11,ZSPAN_M11,X0_M11,X2_M11,X1_M11
2024-03-07 08:00:00,SystemResetWarning,0822.7,5.01,000.00,020.3,019.6,000.0,028.9,022.1,19.8,0000.0,0008.03,0002.58,0001.26
2024-03-07 08:01:00,SystemResetWarning,0822.6,5.01,000.00,020.3,019.6,000.0,028.9,022.1,19.9,0000.0,0008.39,0002.55,0001.26
2024-03-07 08:02:00,SystemResetWarning,0822.7,5.00,000.00,020.3,019.6,000.0,028.9,022.1,19.9,0000.0,0008.49,0002.56,0001.28
2024-03-07 08:03:00,SystemResetWarning,0822.6,4.99,000.00,020.3,019.5,000.0,028.9,022.1,19.9,0000.0,0008.02,0002.59,0001.29
2024-03-07 08:04:00,SystemResetWarning,0822.6,4.99,000.00,020.3,019.5,000.0,028.9,022.1,19.9,0000.0,0008.38,0002.62,0001.30
2024-03-07 08:05:00,SystemResetWarning,0822.5,5.00,000.00,020.3,019.5,000.0,028.9,022.1,19.9,0000.0,0008.49,0002.68,0001.30
2024-03-07 08:06:00,SystemResetWarning,0822.5,5.00,000.00,020.3,019.5,000.0,028.8,022.1,19.9,0000.0,0009.14,0002.70,0001.32
2024-03-07 08:07:00,SystemResetWarning,0822.7,5.01,000.00,020.3,019.4,000.0,028.8,022.0,19.9,0000.0,0009.43,0002.74,0001.34
2024-03-07 08:08:00,SystemResetWarning,0823.1,5.00,000.00,020.2,019.4,000.0,028.8,022.0,19.9,0000.0,0009.74,0002.74,0001.34
2024-03-07 08:09:00,SystemResetWarning,0823.1,5.00,000.00,020.2,019.4,000.0,028.8,022.0,19.9,0000.0,0009.85,0002.77,0001.34
2024-03-07 08:10:00,SystemResetWarning,0823.1,4.99,000.00,020.2,019.3,000.0,028.8,022.0,19.9,0000.0,0009.84,0002.83,0001.36
2024-03-07 08:11:00,SystemResetWarning,0823.1,5.00,000.00,020.2,019.3,000.0,028.8,021.9,19.9,0000.0,0009.59,0002.83,0001.38
2024-03-07 08:12:00,SystemResetWarning,0823.0,5.00,000.00,020.2,019.2,000.0,028.8,021.9,20.0,0000.0,0009.23,0002.74,0001.39
2024-03-07 08:13:00,SystemResetWarning,0823.0,5.00,000.00,020.2,019.2,000.0,028.8,021.9,20.0,0000.0,0008.84,0002.69,0001.39
2024-03-07 08:14:00,SystemResetWarning,0822.9,5.01,000.00,020.1,019.2,000.0,028.8,021.9,20.0,0000.0,0008.79,0002.63,0001.38
2024-03-07 08:15:00,SystemResetWarning,0822.7,5.00,000.00,020.1,019.2,000.0,028.8,021.8,20.1,0000.0,0008.73,0002.70,0001.39
2024-03-07 08:16:00,SystemResetWarning,0822.8,5.00,000.00,020.1,019.1,000.0,028.7,021.8,20.1,0000.0,0008.63,0002.68,0001.40
2024-03-07 08:17:00,SystemResetWarning,0822.7,5.00,000.00,020.1,019.1,000.0,028.7,021.8,20.1,0000.0,0008.18,0002.69,0001.41
2024-03-07 08:18:00,SystemResetWarning,0822.9,5.00,000.00,020.0,019.0,000.0,028.7,021.7,20.1,0000.0,0007.84,0002.75,0001.41
2024-03-07 08:19:00,SystemResetWarning,0822.9,5.00,000.00,020.0,019.0,000.0,028.7,021.7,20.1,0000.0,0007.92,0002.80,0001.42
2024-03-07 08:20:00,SystemResetWarning,0822.6,4.99,000.00,020.0,019.0,000.0,028.7,021.7,20.1,0000.0,0007.77,0002.80,0001.44
2024-03-07 08:21:00,SystemResetWarning,0822.6,4.99,000.00,019.9,018.9,000.0,028.6,021.6,20.2,0000.0,0007.70,0002.83,0001.44
2024-03-07 08:22:00,SystemResetWarning,0823.1,5.01,000.00,019.9,018.9,000.0,028.6,021.6,20.3,0000.0,0007.79,0002.85,0001.45
2024-03-07 08:23:00,SystemResetWarning,0823.1,5.01,000.00,019.9,018.8,000.0,028.6,021.6,20.4,0000.0,0008.57,0002.95,0001.47
2024-03-07 08:24:00,SystemResetWarning,0823.1,5.00,000.00,019.9,018.8,000.0,028.6,021.5,20.4,0000.0,0009.94,0003.05,0001.49
2024-03-07 08:25:00,SystemResetWarning,0823.1,5.01,000.00,019.9,018.8,000.0,028.6,021.6,20.4,0000.0,0010.42,0003.08,0001.51
2024-03-07 08:26:00,SystemResetWarning,0823.1,5.01,000.00,019.8,018.8,000.0,028.6,021.5,20.5,0000.0,0011.38,0003.07,0001.53
2024-03-07 08:27:00,SystemResetWarning,0823.1,5.00,000.00,019.8,018.8,000.0,028.5,021.5,20.4,0000.0,0011.98,0003.09,0001.53
2024-03-07 08:28:00,SystemResetWarning,0822.9,5.00,000.00,019.8,018.8,000.0,028.5,021.5,20.4,0000.0,0012.99,0003.10,0001.54
2024-03-07 08:29:00,SystemResetWarning,0822.9,5.00,000.00,019.8,018.7,000.0,028.5,021.5,20.5,0000.0,0013.17,0003.04,0001.53
2024-03-07 08:30:00,SystemResetWarning,0822.9,5.00,000.00,019.8,018.7,000.0,028.5,021.5,20.5,0000.0,0013.49,0003.02,0001.53
2024-03-07 08:31:00,SystemResetWarning,0822.6,5.00,000.00,019.7,018.7,000.0,028.5,021.4,20.5,0000.0,0013.64,0003.04,0001.53
2024-03-07 08:32:00,SystemResetWarning,0822.6,5.00,000.00,019.7,018.7,000.0,028.4,021.4,20.5,0000.0,0013.64,0002.95,0001.53
2024-03-07 08:33:00,SystemResetWarning,0822.5,4.99,000.00,019.7,018.7,000.0,028.4,021.4,20.6,0000.0,0014.99,0002.93,0001.53
2024-03-07 08:34:00,SystemResetWarning,0822.5,5.00,000.00,019.7,018.7,000.0,028.4,021.4,20.7,0000.0,0014.25,0002.88,0001.51
2024-03-07 08:35:00,SystemResetWarning,0822.6,5.00,000.00,019.7,018.7,000.0,028.4,021.4,20.7,0000.0,0013.03,0002.88,0001.50
2024-03-07 08:36:00,SystemResetWarning,0822.6,5.00,000.00,019.6,018.6,000.0,028.4,021.4,20.8,0000.0,0012.61,0002.85,0001.49
2024-03-07 08:37:00,SystemResetWarning,0822.6,5.00,000.00,019.6,018.6,000.0,028.4,021.3,20.8,0000.0,0012.21,0002.86,0001.50
2024-03-07 08:38:00,SystemResetWarning,0822.6,5.00,000.00,019.6,018.6,000.0,028.3,021.3,20.8,0000.0,0011.74,0002.86,0001.50
2024-03-07 08:39:00,SystemResetWarning,0822.4,5.00,000.00,019.6,018.6,000.0,028.3,021.3,20.8,0000.0,0011.20,0002.84,0001.51
2024-03-07 08:40:00,SystemResetWarning,0822.4,5.00,000.00,019.6,018.6,000.0,028.3,021.3,20.8,0000.0,0010.81,0002.91,0001.51
2024-03-07 08:41:00,SystemResetWarning,0822.4,5.00,000.00,019.6,018.6,000.0,028.3,021.3,20.8,0000.0,0010.49,0002.93,0001.50
2024-03-07 08:42:00,SystemResetWarning,0822.4,5.00,000.00,019.6,018.5,000.0,028.3,021.3,20.9,0000.0,0010.90,0002.91,0001.49
2024-03-07 08:43:00,SystemResetWarning,0822.4,5.00,000.00,019.5,018.5,000.0,028.3,021.2,20.9,0000.0,0011.20,0002.92,0001.49
2024-03-07 08:44:00,SystemResetWarning,0822.4,5.00,000.00,019.5,018.5,000.0,028.2,021.2,20.9,0000.0,0010.07,0002.91,0001.47
2024-03-07 08:45:00,SystemResetWarning,0822.4,5.00,000.00,019.5,018.5,000.0,028.2,021.2,20.9,0000.0,0009.34,0002.86,0001.45
2024-03-07 08:46:00,SystemResetWarning,0822.4,5.00,000.00,019.5,018.5,000.0,028.2,021.2,21.0,0000.0,0009.74,0002.81,0001.45
2024-03-07 08:47:00,SystemResetWarning,0822.4,4.99,000.00,019.5,018.5,000.0,028.2,021.2,21.0,0000.0,0009.65,0002.78,0001.44
2024-03-07 08:48:00,SystemResetWarning,0822.4,5.00,000.00,019.5,018.5,000.0,028.2,021.2,21.0,0000.0,0010.02,0002.75,0001.42
2024-03-07 08:49:00,SystemResetWarning,0822.4,5.00,000.00,019.4,018.5,000.0,028.2,021.2,21.0,0000.0,0009.73,0002.70,0001.41
2024-03-07 08:50:00,SystemResetWarning,0822.4,5.01,000.00,019.4,018.5,000.0,028.1,021.1,21.0,0000.0,0009.88,0002.66,0001.40
2024-03-07 08:51:00,SystemResetWarning,0822.4,4.99,000.00,019.4,018.5,000.0,028.1,021.1,21.1,0000.0,0010.14,0002.62,0001.41
2024-03-07 08:52:00,SystemResetWarning,0822.4,4.99,000.00,019.4,018.5,000.0,028.1,021.1,21.1,0000.0,0010.09,0002.60,0001.41
2024-03-07 08:53:00,SystemResetWarning,0822.4,5.00,000.00,019.4,018.5,000.0,028.1,021.1,21.1,0000.0,0009.56,0002.65,0001.42
2024-03-07 08:54:00,SystemResetWarning,0822.4,5.00,000.00,019.4,018.4,000.0,028.1,021.1,21.2,0000.0,0009.43,0002.65,0001.41
2024-03-07 08:55:00,SystemResetWarning,0822.4,5.01,000.00,019.4,018.4,000.0,028.1,021.1,21.2,0000.0,0009.81,0002.60,0001.43
2024-03-07 08:56:00,SystemResetWarning,0822.4,5.00,000.00,019.3,018.4,000.0,028.1,021.0,21.4,0000.0,0010.00,0002.69,0001.44
2024-03-07 08:57:00,SystemResetWarning,0822.4,5.00,000.00,019.3,018.4,000.0,028.0,021.0,21.8,0000.0,0009.31,0002.66,0001.45
2024-03-07 08:58:00,SystemResetWarning,0822.4,4.99,000.00,019.3,018.3,000.0,028.0,021.0,22.0,0000.0,0009.42,0002.66,0001.45
2024-03-07 08:59:00,SystemResetWarning,0822.3,5.00,000.00,019.3,018.3,000.0,028.0,021.0,22.1,0000.0,0008.94,0002.64,0001.44
